DateTimeUTC,F1_A11,F1_S11,BsB_S11,BsG_S11,BsR_S11,BbsB_S11,BbsG_S11,BbsR_S11,BaB_A11,BaG_A11,BaR_A11,Tu_S11,T_S11,Uu_S11,U_S11,P_S11,T1_A11
2021-03-03T02:00:00Z,00000200,21000000,,,,,,,0000.28,0000.35,-000.32,16.9,24.0,,00.0,0657.8,30.9
2021-03-03T02:01:00Z,00000200,21000000,,,,,,,-000.10,-000.14,0000.13,16.9,24.0,,00.0,0657.8,30.9
2021-03-03T02:02:00Z,00000200,21000000,,,,,,,0000.18,0000.17,0000.23,16.9,24.0,,00.0,0657.8,30.9
2021-03-03T02:03:00Z,00000200,61000000,,,,,,,0000.29,0000.56,0000.28,16.9,24.0,,00.0,0657.8,30.8
2021-03-03T02:04:00Z,00000200,41000000,0000.91,0000.70,0000.69,0000.56,0000.13,0000.30,0000.42,0000.33,0000.22,17.0,23.8,,00.0,0658.6,30.8
2021-03-03T02:05:00Z,00000200,01000000,0001.16,0000.48,-000.02,0000.42,0000.16,0000.07,0000.41,0000.06,0000.44,17.0,23.8,,00.0,0658.7,30.8
2021-03-03T02:06:00Z,00000200,01000000,0001.27,0000.48,0000.03,0000.56,-000.09,-000.04,0000.48,0000.54,-000.34,16.9,23.7,,00.0,0658.7,30.8
2021-03-03T02:07:00Z,00000200,01000000,0001.03,0000.50,0000.13,-000.04,0000.17,0000.12,0000.02,0000.15,0000.65,16.9,23.7,,00.0,0658.6,30.8
2021-03-03T02:08:00Z,00000200,01000000,0000.86,0000.48,-000.03,0000.22,0000.26,0000.09,0000.26,0000.06,0000.16,16.8,23.6,,00.0,0658.7,30.8
2021-03-03T02:09:00Z,00000200,01000000,0001.02,0000.46,0000.12,0000.63,0000.38,-000.04,0000.51,0000.50,-000.40,16.8,23.6,,00.0,0658.7,30.8
2021-03-03T02:10:00Z,00000200,01000000,0001.27,0000.47,0000.14,0000.19,-000.01,0000.00,0000.10,0000.09,0000.75,16.7,23.6,,00.0,0658.7,30.8
2021-03-03T02:11:00Z,00000200,01000000,0001.17,0000.51,0000.32,0000.36,0000.24,0000.14,0000.18,-000.09,-000.01,16.7,23.5,,00.0,0658.8,30.8
2021-03-03T02:12:00Z,00000200,01000000,0001.23,0000.89,0000.32,0000.06,0000.17,0000.04,0000.02,0000.38,-000.02,16.6,23.5,,00.0,0658.8,30.8
2021-03-03T02:13:00Z,00000200,01000000,0001.11,0000.70,0000.20,0000.54,-000.00,0000.26,0000.28,0000.08,0000.10,16.6,23.5,,00.0,0658.8,30.8
2021-03-03T02:14:00Z,00000200,01000000,0001.24,0000.61,0000.17,0000.65,0000.22,-000.10,0000.29,0000.19,0000.18,16.5,23.5,,00.0,0658.8,30.8
2021-03-03T02:15:00Z,00000200,01000000,0001.03,0000.48,0000.21,0000.60,0000.02,0000.10,0000.27,-000.12,0000.03,16.5,23.4,,00.0,0658.8,30.8
2021-03-03T02:16:00Z,00000200,01000000,0000.54,0000.50,0000.02,0000.25,0000.17,-000.18,0000.04,0000.26,0000.03,16.6,23.4,,00.0,0658.8,30.8
2021-03-03T02:17:00Z,00000200,01000000,0001.02,0000.74,0000.18,0000.40,0000.01,-000.14,0000.47,0000.35,-000.09,16.6,23.5,,00.0,0658.8,30.8
2021-03-03T02:18:00Z,00000200,01000000,0001.68,0000.62,0000.13,0000.63,0000.03,-000.02,0000.20,0000.17,0000.56,16.7,23.5,,00.0,0658.8,30.8
2021-03-03T02:19:00Z,00000200,01000000,0001.41,0000.56,0000.20,0000.11,0000.31,0000.10,0000.19,0000.06,0000.16,16.8,23.6,,00.0,0658.8,30.8
2021-03-03T02:20:00Z,00000200,01000000,0000.56,0000.45,0000.05,0000.22,0000.23,0000.13,0000.38,0000.48,-000.10,16.8,23.6,,00.0,0658.8,30.8
2021-03-03T02:21:00Z,00000200,01000000,0001.03,0000.68,0000.36,0000.09,-000.00,0000.27,0000.13,0000.55,0000.66,16.8,23.6,,00.0,0658.8,30.8
2021-03-03T02:22:00Z,00000200,01000000,0000.78,0000.61,0000.42,0000.33,0000.05,0000.23,0000.45,-000.24,-000.01,16.9,23.6,,00.0,0658.8,30.8
2021-03-03T02:23:00Z,00000200,01000000,0001.15,0000.55,0000.29,0000.32,0000.33,0000.10,0000.07,0000.44,0000.16,17.0,23.7,,00.0,0658.9,30.8
2021-03-03T02:24:00Z,00000200,01000000,0000.83,0000.42,-000.01,0000.35,0000.16,-000.37,0000.28,-000.12,0000.18,17.0,23.7,,00.0,0658.9,30.8
2021-03-03T02:25:00Z,00000200,01000000,0001.13,0000.45,0000.11,0000.25,0000.16,0000.35,0000.19,0000.52,0000.18,17.1,23.7,,00.0,0658.9,30.8
2021-03-03T02:26:00Z,00000200,01000000,0000.87,0000.37,0000.31,0000.42,0000.15,0000.12,0000.26,0000.12,0000.23,17.1,23.7,,00.0,0658.9,30.8
2021-03-03T02:27:00Z,00000200,01000000,0001.06,0000.66,0000.29,0000.76,0000.02,0000.03,0000.22,0000.31,0000.30,17.2,23.8,,00.0,0659.0,30.8
2021-03-03T02:28:00Z,00000200,01000000,0001.92,0000.56,0000.25,0000.76,-000.18,0000.23,0000.33,0000.39,0000.06,17.2,23.8,,00.0,0659.0,30.9
2021-03-03T02:29:00Z,00000200,01000000,0000.74,0000.62,0000.02,0000.09,0000.25,-000.05,0000.60,0000.29,0000.38,17.3,23.8,,00.0,0659.1,30.9
2021-03-03T02:30:00Z,00000200,01000000,0001.28,0000.20,-000.00,0000.46,0000.14,0000.08,0000.54,0000.71,-000.09,17.3,23.8,,00.0,0659.0,30.9
2021-03-03T02:31:00Z,00000200,01000000,0001.40,0000.62,0000.24,0000.32,0000.19,-000.06,-000.19,0000.18,0000.03,17.3,23.8,,00.0,0659.0,30.9
2021-03-03T02:32:00Z,00000200,01000000,0001.53,0000.47,0000.13,0000.40,0000.02,0000.07,0000.41,-000.17,0000.51,17.2,23.8,,00.0,0659.1,30.8
2021-03-03T02:33:00Z,00000200,01000000,0001.40,0000.67,0000.28,0000.19,0000.21,0000.09,0000.21,0000.18,-000.01,17.2,23.8,,00.0,0659.0,30.8
2021-03-03T02:34:00Z,00000200,01000000,0001.22,0000.40,0000.33,0000.63,0000.20,0000.23,0000.33,0000.21,0000.18,17.1,23.8,,00.0,0659.1,30.8
2021-03-03T02:35:00Z,00000200,01000000,0000.76,0000.81,0000.23,0000.33,0000.03,0000.25,-000.03,0000.65,0000.01,17.0,23.8,,00.0,0659.1,30.8
2021-03-03T02:36:00Z,00000200,01000000,0001.02,0000.75,0000.28,0000.60,0000.08,0000.11,0000.18,-000.20,0000.36,17.0,23.7,,00.0,0659.1,30.8
2021-03-03T02:37:00Z,00000200,01000000,0001.27,0000.62,0000.50,0000.34,0000.15,-000.05,0000.19,0000.35,0000.42,17.0,23.7,,00.0,0659.1,30.8
2021-03-03T02:38:00Z,00000200,01000000,0001.58,0000.99,0000.30,0000.67,0000.16,0000.00,0000.45,0000.51,-000.06,16.9,23.7,,00.0,0659.1,30.8
2021-03-03T02:39:00Z,00000200,01000000,0001.70,0000.76,0000.43,0000.65,0000.18,0000.15,0000.20,-000.25,0000.05,16.8,23.6,,00.0,0659.2,30.8
2021-03-03T02:40:00Z,00000200,01000000,0001.10,0000.39,0000.18,0000.43,-000.09,-000.14,0000.29,0000.62,0000.19,16.8,23.6,,00.0,0659.1,30.8
2021-03-03T02:41:00Z,00000200,01000000,0001.41,0000.72,0000.13,-000.04,0000.15,0000.11,0000.20,0000.29,-000.09,16.8,23.6,,00.0,0659.1,30.8
2021-03-03T02:42:00Z,00000200,01000000,0001.37,0000.73,0000.48,0000.40,0000.24,0000.08,0000.47,0000.13,0000.38,16.7,23.6,,00.0,0659.1,30.8
2021-03-03T02:43:00Z,00000200,01000000,0000.97,0000.70,0000.32,0000.33,0000.23,0000.01,0000.29,0000.03,0000.39,16.7,23.5,,00.0,0659.1,30.8
2021-03-03T02:44:00Z,00000200,01000000,0001.28,0000.58,0000.46,0000.57,0000.08,0000.12,0000.03,0000.27,-000.02,16.6,23.5,,00.0,0659.1,30.8
2021-03-03T02:45:00Z,00000200,01000000,0001.53,0000.86,0000.35,0000.39,-000.02,-000.06,0000.29,-000.26,0000.17,16.6,23.5,,00.0,0659.1,30.8
2021-03-03T02:46:00Z,00000200,01000000,0001.97,0000.50,0000.47,0000.90,0000.05,0000.07,0000.22,0000.54,-000.10,16.7,23.5,,00.0,0659.1,30.8
2021-03-03T02:47:00Z,00000200,01000000,0001.53,0000.76,0000.10,0000.51,0000.10,-000.23,0000.19,0000.24,0000.75,16.7,23.5,,00.0,0659.1,30.8
2021-03-03T02:48:00Z,00000200,01000000,0001.31,0000.50,0000.28,0000.38,0000.25,-000.04,0000.37,0000.17,-000.01,16.8,23.5,,00.0,0659.1,30.8
2021-03-03T02:49:00Z,00000200,01000000,0001.52,0001.06,0000.34,0000.70,0000.17,0000.06,0000.56,0000.53,0000.31,16.8,23.6,,00.0,0659.2,30.8
2021-03-03T02:50:00Z,00000200,01000000,0001.54,0000.62,0000.55,0000.29,0000.08,0000.13,0000.04,-000.02,-000.01,16.9,23.6,,00.0,0659.2,30.8
2021-03-03T02:51:00Z,00000200,01000000,0001.36,0000.69,0000.32,0000.19,0000.27,0000.13,0000.27,0000.63,0000.28,16.9,23.6,,00.0,0659.3,30.8
2021-03-03T02:52:00Z,00000200,01000000,0001.32,0000.66,0000.34,0000.96,0000.27,-000.13,0000.13,0000.05,0000.03,17.0,23.7,,00.0,0659.3,30.9
2021-03-03T02:53:00Z,00000200,01010000,0001.10,0000.63,0000.37,0000.44,-000.01,0000.01,0000.30,0000.36,0000.24,17.1,23.7,,00.0,0659.3,30.8
2021-03-03T02:54:00Z,00000200,01000000,0001.15,0000.52,0000.26,0000.64,0000.13,-000.09,0000.46,0000.36,0000.31,17.1,23.7,,00.0,0659.3,30.8
2021-03-03T02:55:00Z,00000200,01000000,0001.08,0000.41,0000.15,0000.59,0000.33,-000.04,0000.39,0000.26,0000.18,17.2,23.8,,00.0,0659.3,30.9
2021-03-03T02:56:00Z,00000200,01000000,0001.25,0000.82,0000.30,0000.63,0000.00,-000.32,0000.36,0000.30,0000.22,17.2,23.8,,00.0,0659.3,30.9
2021-03-03T02:57:00Z,00000200,41000000,,,,,,,-000.40,-000.19,-000.28,17.2,23.8,,00.0,0659.2,30.9
2021-03-03T02:58:00Z,00000200,61000000,,,,,,,0000.38,0000.05,0000.23,17.0,23.9,,00.0,0658.3,30.9
2021-03-03T02:59:00Z,00000200,21000000,,,,,,,0000.12,0000.38,0000.34,17.0,24.0,,00.0,0658.3,30.9
